Weather in Limbach-Oberfrohna

Germany     50°51′30″N   12°46′03″E
temp.,
°C
wind,
m/s
gust,
m/s
humid.,
%
clouds,
%
prec.,
mm/h
press.,
hPa
HPBL,
m
17 october, sun
sun1723:00+4sse21876 0.0 102311
02:00+3s228847 0.0 102211
05:00+3ssw22885 0.0 102212
08:00+3ssw2289100 0.0 102228
11:00+7sw2475100 0.0 1022205
14:00+10w355976 0.0 10211173
17:00+9w2371100 0.0 1021114
20:00+6s2283100 0.0 102211
18 october, mon
mon1823:00+6s2279100 0.0 102315
02:00+7s1176100 0.0 102412
05:00+5s118081 0.0 102410
08:00+7s227382 0.0 102540
11:00+11sw23605 0.0 1025410
14:00+14wsw335373 0.0 1025978
17:00+12w1270100 0.0 102418
20:00+9s2279100 0.0 102525
19 october, tue
tue1923:00+9s2280100 0.0 102630
02:00+8s2381100 0.0 102534
05:00+8s2277100 0.0 102442
08:00+9s2377100 0.0 102439
11:00+12s31068100 0.0 1023352
14:00+12sw61463100 0.0 1022513
17:00+12sw61479100 0.1 1021717
20:00+11sw71384100 0.3 1021490
20 october, wed
wed2023:00+11sw6138999 0.5 1020428
02:00+12sw61387100 0.6 1019413
05:00+12sw51482100 0.0 1017322
08:00+12ssw51377100 0.0 1016280
11:00+18ssw6145993 0.0 1013602
14:00+19ssw6155091 0.0 1011779
17:00+17ssw81654100 0.1 1009580
20:00+16ssw817595 0.1 1009682
21 october, thu
thu2123:00+16sw9176885 0.0 1008920
02:00+15sw91883100 1.2 10071366
05:00+15sw122375100 0.3 10041640
08:00+13wsw112172100 0.3 10051570
11:00+13wsw112068100 0.0 10071549
14:00+14wsw1018630 0.0 10051538
17:00+13wsw917631 0.0 10051471
20:00+11sw714664 0.0 10061026